Hulianwang W. Digui 15-04

operational
NORAD ID: 66956 Int'l Des: 2025-287 Owner: ZXW Country: CN Constellation: xingwang
LEOCIRCULARPOLAR

About Hulianwang W. Digui 15-04

Description loading...

Live Position

Loading 3D Globe...

Upcoming Passes

Altitude History

Altitude vs Time

uPlot chart will show altitude changes over time

Two-Line Element Set

1 66956U 25287D 25345.82292378 .00000033 00000-0 18811-4 0 9995
2 66956 86.4968 346.4938 0007285 195.1574 164.9368 13.69017640 404
Epoch: Dec 11, 2025 • Age: 54 hours

Current Status

Altitude 1030.2 km
Velocity 7.34 km/s
Sub-Earth Point -68.97°S, 133.29°W
Launch Date Dec 8, 2025
Age 6 days
Type other

Technical Details

Classification Payload
Mass 800.00 kg
Dry Mass 800.00 kg
Total Mass 800.00 kg
Length 3.00 m
Diameter 1.00 m
Span 10.00 m
Shape Box + 2 Pan
Manufacturer SECM
Bus Type Guowang S
Phase Status In Orbit
Owner/State ZXW/CN

Large Constellations

Loading constellations...